| time (UTC) | temp C | wind direction | speed KPH | gust KPH | rain 1hr cm | rain 24hr cm | rain mn cm | humidity % | barometer mb |
| 20260507110507 | 0 | 232 | 6.4 | 11.3 | 0.00 | 1.02 | 0.00 | 64 | 1015.1 |
| 20260507110010 | 0 | 237 | 6.4 | 14.5 | 0.00 | 1.02 | 0.00 | 64 | 1017.7 |
| 20260507110006 | 0 | 237 | 6.4 | 14.5 | 0.00 | 1.02 | 0.00 | 64 | 1015.2 |
| 20260507105505 | 0 | 236 | 6.4 | 14.5 | 0.00 | 1.02 | 0.00 | 65 | 1015.2 |
| 20260507105006 | 0 | 264 | 3.2 | 11.3 | 0.00 | 1.02 | 0.00 | 65 | 1015.2 |
| 20260507104506 | 0 | 225 | 4.8 | 9.7 | 0.00 | 1.02 | 0.00 | 65 | 1015.2 |
| 20260507104503 | 0 | 225 | 4.8 | 9.7 | 0.00 | 1.02 | 0.00 | 65 | 1017.6 |
| 20260507104006 | 0 | 227 | 6.4 | 11.3 | 0.00 | 1.02 | 0.00 | 65 | 1015.2 |
| 20260507103505 | 0 | 230 | 4.8 | 12.9 | 0.00 | 1.02 | 0.00 | 66 | 1015.3 |
| 20260507103006 | 0 | 244 | 6.4 | 12.9 | 0.00 | 1.02 | 0.00 | 66 | 1015.3 |
| 20260507103003 | 0 | 244 | 4.8 | 12.9 | 0.00 | 1.02 | 0.00 | 66 | 1017.8 |
| 20260507102505 | 0 | 231 | 4.8 | 12.9 | 0.00 | 1.02 | 0.00 | 66 | 1015.3 |
| 20260507102007 | 0 | 256 | 4.8 | 11.3 | 0.00 | 1.02 | 0.00 | 66 | 1015.4 |
| 20260507101507 | 0 | 234 | 3.2 | 8.0 | 0.00 | 1.02 | 0.00 | 66 | 1017.9 |
| 20260507101006 | 0 | 263 | 4.8 | 12.9 | 0.00 | 1.02 | 0.00 | 66 | 1015.4 |
| 20260507100506 | 0 | 247 | 4.8 | 12.9 | 0.00 | 1.02 | 0.00 | 66 | 1015.4 |
| 20260507100005 | 0 | 240 | 4.8 | 14.5 | 0.00 | 1.02 | 0.00 | 67 | 1018.0 |
| 20260507095006 | 0 | 234 | 4.8 | 11.3 | 0.00 | 1.02 | 0.00 | 68 | 1015.5 |
| 20260507094604 | 0 | 243 | 4.8 | 12.9 | 0.00 | 1.02 | 0.00 | 68 | 1018.1 |
| 20260507094459 | 0 | 247 | 6.4 | 12.9 | 0.00 | 1.02 | 0.00 | 68 | 1015.5 |
| 20260507094006 | 0 | 234 | 8.0 | 12.9 | 0.00 | 1.02 | 0.00 | 69 | 1015.5 |
| 20260507093504 | 0 | 236 | 9.7 | 12.9 | 0.00 | 1.02 | 0.00 | 69 | 1015.5 |
| 20260507093005 | 0 | 216 | 4.8 | 12.9 | 0.00 | 1.02 | 0.00 | 69 | 1015.5 |
| 20260507093003 | 0 | 216 | 4.8 | 12.9 | 0.00 | 1.02 | 0.00 | 69 | 1018.1 |
| 20260507092506 | 0 | 228 | 8.0 | 12.9 | 0.00 | 1.02 | 0.00 | 69 | 1015.6 |
| 20260507092007 | 0 | 246 | 4.8 | 12.9 | 0.00 | 1.02 | 0.00 | 70 | 1015.7 |
| 20260507091506 | 0 | 238 | 6.4 | 12.9 | 0.00 | 1.02 | 0.00 | 70 | 1015.5 |
| 20260507091503 | 0 | 238 | 6.4 | 12.9 | 0.00 | 1.02 | 0.00 | 70 | 1018.2 |
| 20260507091006 | 0 | 242 | 6.4 | 11.3 | 0.00 | 1.02 | 0.00 | 70 | 1015.6 |
| 20260507090505 | 0 | 225 | 4.8 | 14.5 | 0.00 | 1.02 | 0.00 | 71 | 1015.6 |
| 20260507090007 | 0 | 238 | 8.0 | 14.5 | 0.00 | 1.02 | 0.00 | 71 | 1015.6 |
| 20260507085500 | 0 | 311 | 6.4 | 9.7 | 0.00 | 1.02 | 0.00 | 71 | 1015.7 |
| 20260507085007 | 0 | 215 | 6.4 | 14.5 | 0.00 | 1.02 | 0.00 | 71 | 1015.7 |
| 20260507084507 | 0 | 254 | 4.8 | 14.5 | 0.00 | 1.02 | 0.00 | 72 | 1018.5 |
| 20260507084006 | 0 | 238 | 8.0 | 14.5 | 0.00 | 1.02 | 0.00 | 73 | 1015.8 |
| 20260507083506 | 0 | 249 | 6.4 | 11.3 | 0.00 | 1.02 | 0.00 | 74 | 1015.7 |
| 20260507083006 | -1 | 219 | 4.8 | 11.3 | 0.00 | 1.02 | 0.00 | 75 | 1018.4 |
| 20260507082504 | -1 | 220 | 6.4 | 11.3 | 0.00 | 1.02 | 0.00 | 76 | 1015.7 |
| 20260507082006 | -1 | 234 | 6.4 | 11.3 | 0.00 | 1.02 | 0.00 | 76 | 1015.7 |
| 20260507081506 | -1 | 230 | 4.8 | 17.7 | 0.00 | 1.02 | 0.00 | 76 | 1018.4 |
| 20260507081006 | -1 | 235 | 6.4 | 17.7 | 0.00 | 1.02 | 0.00 | 76 | 1015.8 |
| 20260507080006 | -1 | 232 | 3.2 | 14.5 | 0.00 | 1.02 | 0.00 | 77 | 1015.9 |
| 20260507080004 | -1 | 232 | 3.2 | 14.5 | 0.00 | 1.02 | 0.00 | 77 | 1018.7 |
| 20260507075504 | -1 | 209 | 6.4 | 12.9 | 0.00 | 1.02 | 0.00 | 77 | 1015.9 |
| 20260507074506 | -1 | 271 | 4.8 | 12.9 | 0.00 | 1.02 | 0.00 | 77 | 1016.0 |
| 20260507074504 | -1 | 271 | 4.8 | 12.9 | 0.00 | 1.02 | 0.00 | 77 | 1018.8 |
| 20260507074007 | -1 | 266 | 4.8 | 9.7 | 0.00 | 1.02 | 0.00 | 78 | 1016.1 |
| 20260507073505 | -1 | 251 | 4.8 | 11.3 | 0.00 | 1.02 | 0.00 | 79 | 1016.2 |
| 20260507073006 | -1 | 234 | 4.8 | 11.3 | 0.00 | 1.02 | 0.00 | 80 | 1016.3 |
| 20260507073003 | -1 | 234 | 3.2 | 11.3 | 0.00 | 1.02 | 0.00 | 80 | 1019.0 |
| 20260507072507 | -1 | 254 | 4.8 | 9.7 | 0.00 | 1.02 | 0.00 | 80 | 1016.3 |
| 20260507071506 | -1 | 251 | 4.8 | 12.9 | 0.00 | 1.02 | 0.00 | 82 | 1016.2 |
| 20260507071504 | -1 | 251 | 4.8 | 12.9 | 0.00 | 1.02 | 0.00 | 82 | 1019.0 |
| 20260507071006 | -1 | 237 | 4.8 | 12.9 | 0.00 | 1.02 | 0.00 | 83 | 1016.3 |
| 20260507070506 | -1 | 223 | 4.8 | 12.9 | 0.00 | 1.02 | 0.00 | 83 | 1016.3 |
| 20260507070058 | -1 | 211 | 3.2 | 12.9 | 0.00 | 1.02 | 0.00 | 84 | 1019.1 |
| 20260507070012 | -1 | 209 | 4.8 | 12.9 | 0.00 | 1.02 | 0.00 | 84 | 1016.3 |
| 20260507070010 | -1 | 209 | 4.8 | 12.9 | 0.00 | 1.02 | 0.00 | 84 | 1019.1 |
| 20260507065506 | -1 | 242 | 3.2 | 9.7 | 0.00 | 1.02 | 0.00 | 84 | 1016.4 |
| 20260507065006 | -1 | 201 | 3.2 | 11.3 | 0.00 | 1.02 | 0.00 | 84 | 1016.5 |
| 20260507064505 | -1 | 189 | 6.4 | 14.5 | 0.00 | 1.02 | 0.00 | 85 | 1016.3 |
| 20260507064006 | -1 | 232 | 8.0 | 14.5 | 0.00 | 1.02 | 0.00 | 85 | 1016.4 |
| 20260507063006 | -1 | 223 | 6.4 | 12.9 | 0.00 | 1.02 | 0.00 | 86 | 1016.4 |
| 20260507063004 | -1 | 223 | 6.4 | 12.9 | 0.00 | 1.02 | 0.00 | 86 | 1019.2 |
| 20260507062005 | -1 | 258 | 6.4 | 12.9 | 0.00 | 1.02 | 0.00 | 86 | 1016.3 |
| 20260507061506 | -1 | 229 | 4.8 | 11.3 | 0.00 | 1.02 | 0.00 | 86 | 1016.5 |
| 20260507061504 | -1 | 229 | 4.8 | 11.3 | 0.00 | 1.02 | 0.00 | 86 | 1019.2 |
| 20260507061006 | -1 | 197 | 4.8 | 11.3 | 0.00 | 1.02 | 0.00 | 86 | 1016.5 |
| 20260507060007 | -1 | 219 | 4.8 | 16.1 | 0.00 | 1.02 | 0.00 | 87 | 1016.5 |
| 20260507060003 | -1 | 219 | 3.2 | 16.1 | 0.00 | 1.02 | 0.00 | 87 | 1019.3 |
| 20260507055504 | -1 | 229 | 8.0 | 16.1 | 0.00 | 1.02 | 1.02 | 87 | 1016.5 |
| 20260507055005 | -1 | 214 | 6.4 | 16.1 | 0.00 | 1.02 | 1.02 | 88 | 1016.5 |
| 20260507054506 | -1 | 234 | 3.2 | 9.7 | 0.00 | 1.02 | 1.02 | 87 | 1016.5 |
| 20260507054503 | -1 | 234 | 3.2 | 9.7 | 0.00 | 1.02 | 1.02 | 87 | 1019.3 |
| 20260507054005 | -1 | 199 | 3.2 | 8.0 | 0.00 | 1.02 | 1.02 | 87 | 1016.4 |
| 20260507053504 | -1 | 192 | 3.2 | 6.4 | 0.00 | 1.02 | 1.02 | 87 | 1016.4 |
| 20260507053006 | -1 | 215 | 3.2 | 9.7 | 0.00 | 1.02 | 1.02 | 87 | 1016.4 |
| 20260507052505 | -1 | 209 | 3.2 | 9.7 | 0.00 | 1.02 | 1.02 | 87 | 1016.3 |
| 20260507052002 | -1 | 202 | 3.2 | 12.9 | 0.00 | 1.02 | 1.02 | 87 | 1016.3 |
| 20260507051504 | -1 | 196 | 4.8 | 12.9 | 0.00 | 1.02 | 1.02 | 87 | 1016.3 |
| 20260507051005 | -1 | 183 | 4.8 | 11.3 | 0.00 | 1.02 | 1.02 | 87 | 1016.2 |
| 20260507050504 | -1 | 211 | 4.8 | 9.7 | 0.00 | 1.02 | 1.02 | 87 | 1016.3 |
| 20260507050002 | -1 | 190 | 3.2 | 9.7 | 0.00 | 1.02 | 1.02 | 87 | 1019.1 |
| 20260507045504 | -1 | 200 | 3.2 | 11.3 | 0.00 | 1.02 | 1.02 | 87 | 1016.4 |
| 20260507044507 | -1 | 204 | 3.2 | 12.9 | 0.00 | 1.02 | 1.02 | 87 | 1019.1 |
| 20260507043505 | -1 | 205 | 6.4 | 12.9 | 0.00 | 1.02 | 1.02 | 87 | 1016.3 |
| 20260507043003 | 0 | 214 | 4.8 | 11.3 | 0.00 | 1.02 | 1.02 | 86 | 1019.1 |
| 20260507042005 | 0 | 202 | 3.2 | 11.3 | 0.00 | 1.02 | 1.02 | 86 | 1016.3 |
| 20260507041503 | 0 | 197 | 4.8 | 14.5 | 0.00 | 1.02 | 1.02 | 86 | 1019.0 |
| 20260507040006 | 0 | 219 | 6.4 | 14.5 | 0.00 | 1.02 | 1.02 | 86 | 1016.3 |
| 20260507040002 | 0 | 219 | 4.8 | 14.5 | 0.00 | 1.02 | 1.02 | 86 | 1019.1 |
| 20260507035504 | 0 | 232 | 6.4 | 14.5 | 0.00 | 1.02 | 1.02 | 85 | 1016.3 |
| 20260507035005 | 0 | 245 | 9.7 | 14.5 | 0.00 | 1.02 | 1.02 | 86 | 1016.3 |
| 20260507034505 | 0 | 205 | 6.4 | 12.9 | 0.00 | 1.02 | 1.02 | 86 | 1016.2 |
| 20260507034502 | 0 | 205 | 4.8 | 12.9 | 0.00 | 1.02 | 1.02 | 86 | 1019.0 |
| 20260507034005 | 0 | 175 | 6.4 | 12.9 | 0.00 | 1.02 | 1.02 | 85 | 1016.2 |
| 20260507033002 | 0 | 210 | 6.4 | 12.9 | 0.00 | 1.02 | 1.02 | 85 | 1019.0 |
| 20260507032504 | 0 | 210 | 4.8 | 11.3 | 0.00 | 1.02 | 1.02 | 84 | 1016.3 |
| 20260507032005 | 0 | 218 | 4.8 | 12.9 | 0.00 | 1.02 | 1.02 | 84 | 1016.2 |
| 20260507031502 | 0 | 174 | 6.4 | 16.1 | 0.00 | 1.02 | 1.02 | 83 | 1019.0 |
| 20260507031005 | 0 | 198 | 6.4 | 16.1 | 0.00 | 1.02 | 1.02 | 83 | 1016.2 |
| 20260507030504 | 0 | 182 | 8.0 | 16.1 | 0.00 | 1.02 | 1.02 | 83 | 1016.2 |
| 20260507030005 | 0 | 180 | 8.0 | 16.1 | 0.00 | 1.02 | 1.02 | 83 | 1016.2 |
| 20260507025504 | 0 | 212 | 11.3 | 16.1 | 0.00 | 1.02 | 1.02 | 82 | 1016.1 |
| 20260507025004 | 0 | 184 | 6.4 | 14.5 | 0.00 | 1.02 | 1.02 | 82 | 1016.1 |
| 20260507024502 | 0 | 171 | 4.8 | 14.5 | 0.00 | 1.02 | 1.02 | 83 | 1018.9 |
| 20260507024005 | 0 | 173 | 8.0 | 9.7 | 0.00 | 1.02 | 1.02 | 84 | 1016.1 |
| 20260507023504 | 0 | 167 | 6.4 | 12.9 | 0.00 | 1.02 | 1.02 | 85 | 1016.1 |
| 20260507023002 | 0 | 153 | 1.6 | 4.8 | 0.00 | 1.02 | 1.02 | 86 | 1018.9 |
| 20260507022005 | 0 | 153 | 3.2 | 8.0 | 0.00 | 1.02 | 1.02 | 86 | 1016.1 |
| 20260507021503 | 0 | 153 | 4.8 | 9.7 | 0.00 | 1.02 | 1.02 | 85 | 1016.1 |
| 20260507021501 | 0 | 153 | 3.2 | 9.7 | 0.00 | 1.02 | 1.02 | 85 | 1018.9 |
| 20260507021005 | 0 | 149 | 1.6 | 8.0 | 0.00 | 1.02 | 1.02 | 84 | 1016.1 |
| 20260507020504 | 0 | 156 | 3.2 | 4.8 | 0.00 | 1.02 | 1.02 | 83 | 1016.1 |
| 20260507020006 | 0 | 156 | 3.2 | 4.8 | 0.00 | 1.02 | 1.02 | 82 | 1016.1 |
| 20260507020003 | 0 | 156 | 3.2 | 4.8 | 0.00 | 1.02 | 1.02 | 82 | 1018.8 |
| 20260507015504 | 0 | 156 | 3.2 | 4.8 | 0.00 | 1.02 | 1.02 | 81 | 1016.0 |
| 20260507015005 | 0 | 156 | 3.2 | 4.8 | 0.00 | 1.02 | 1.02 | 81 | 1016.0 |
| 20260507014505 | 0 | 156 | 3.2 | 8.0 | 0.00 | 1.02 | 1.02 | 81 | 1016.0 |
| 20260507014503 | 0 | 156 | 1.6 | 8.0 | 0.00 | 1.02 | 1.02 | 81 | 1018.7 |
| 20260507014005 | 0 | 156 | 3.2 | 9.7 | 0.00 | 1.02 | 1.02 | 80 | 1016.0 |
| 20260507013503 | 0 | 156 | 6.4 | 9.7 | 0.00 | 1.02 | 1.02 | 80 | 1016.1 |
| 20260507013006 | 0 | 156 | 3.2 | 8.0 | 0.00 | 1.02 | 1.02 | 79 | 1018.8 |
| 20260507012004 | 0 | 156 | 4.8 | 4.8 | 0.00 | 1.02 | 1.02 | 78 | 1016.1 |
| 20260507011504 | 1 | 156 | 1.6 | 8.0 | 0.00 | 1.02 | 1.02 | 77 | 1018.9 |
| 20260507010504 | 1 | 156 | 3.2 | 4.8 | 0.00 | 1.02 | 1.02 | 76 | 1016.0 |
| 20260507010008 | 1 | 156 | 1.6 | 8.0 | 0.00 | 1.02 | 1.02 | 75 | 1018.8 |
| 20260507010005 | 1 | 156 | 1.6 | 8.0 | 0.00 | 1.02 | 1.02 | 75 | 1016.0 |
| 20260507005504 | 1 | 156 | 3.2 | 8.0 | 0.00 | 1.02 | 1.02 | 75 | 1016.0 |
| 20260507005004 | 1 | 156 | 4.8 | 8.0 | 0.00 | 1.02 | 1.02 | 75 | 1016.1 |
| 20260507004505 | 1 | 156 | 3.2 | 8.0 | 0.00 | 1.02 | 1.02 | 75 | 1016.0 |
| 20260507004502 | 1 | 156 | 1.6 | 8.0 | 0.00 | 1.02 | 1.02 | 75 | 1018.8 |
| 20260507003504 | 1 | 155 | 4.8 | 9.7 | 0.00 | 1.02 | 1.02 | 75 | 1016.1 |
| 20260507003007 | 1 | 155 | 3.2 | 11.3 | 0.00 | 1.02 | 1.02 | 74 | 1016.0 |
| 20260507003002 | 1 | 155 | 3.2 | 11.3 | 0.00 | 1.02 | 1.02 | 74 | 1018.8 |
| 20260507002505 | 1 | 155 | 6.4 | 11.3 | 0.00 | 1.02 | 1.02 | 74 | 1016.0 |
| 20260507002005 | 1 | 140 | 8.0 | 11.3 | 0.00 | 1.02 | 1.02 | 73 | 1016.0 |
| 20260507001504 | 1 | 159 | 6.4 | 9.7 | 0.00 | 1.02 | 1.02 | 73 | 1016.0 |
| 20260507001501 | 1 | 159 | 6.4 | 9.7 | 0.00 | 1.02 | 1.02 | 73 | 1018.8 |
| 20260507001004 | 1 | 159 | 4.8 | 9.7 | 0.00 | 1.02 | 1.02 | 74 | 1016.1 |
| 20260507000503 | 1 | 167 | 8.0 | 9.7 | 0.00 | 1.02 | 1.02 | 73 | 1016.1 |
| 20260507000003 | 1 | 150 | 6.4 | 9.7 | 0.00 | 1.02 | 1.02 | 71 | 1018.9 |
| 20260506235504 | 1 | 128 | 4.8 | 8.0 | 0.00 | 1.14 | 1.02 | 70 | 1016.1 |
| 20260506235005 | 1 | 188 | 4.8 | 9.7 | 0.00 | 1.14 | 1.02 | 71 | 1016.2 |
| 20260506234503 | 1 | 164 | 4.8 | 8.0 | 0.00 | 1.14 | 1.02 | 70 | 1016.2 |
| 20260506234005 | 1 | 138 | 3.2 | 6.4 | 0.00 | 1.14 | 1.02 | 70 | 1016.2 |
| 20260506233005 | 2 | 138 | 3.2 | 4.8 | 0.00 | 1.14 | 1.02 | 71 | 1016.3 |
| 20260506233003 | 2 | 138 | 1.6 | 4.8 | 0.00 | 1.14 | 1.02 | 71 | 1019.0 |
| 20260506232504 | 1 | 138 | 1.6 | 6.4 | 0.00 | 1.14 | 1.02 | 69 | 1016.3 |
| 20260506232005 | 2 | 138 | 3.2 | 6.4 | 0.00 | 1.14 | 1.02 | 68 | 1016.3 |
| 20260506231504 | 2 | 138 | 3.2 | 6.4 | 0.00 | 1.14 | 1.02 | 70 | 1016.3 |
| 20260506231502 | 2 | 138 | 1.6 | 6.4 | 0.00 | 1.14 | 1.02 | 70 | 1019.0 |
| 20260506231005 | 1 | 179 | 4.8 | 8.0 | 0.00 | 1.14 | 1.02 | 69 | 1016.3 |
| 20260506230504 | 1 | 236 | 1.6 | 8.0 | 0.00 | 1.14 | 1.02 | 70 | 1016.3 |
| 20260506230005 | 1 | 111 | 0.0 | 4.8 | 0.00 | 1.14 | 1.02 | 73 | 1016.3 |
| 20260506230002 | 1 | 111 | 0.0 | 4.8 | 0.00 | 1.14 | 1.02 | 73 | 1019.1 |
| 20260506225504 | 1 | 111 | 1.6 | 4.8 | 0.00 | 1.14 | 1.02 | 75 | 1016.4 |
| 20260506225005 | 0 | 111 | 1.6 | 6.4 | 0.00 | 1.14 | 1.02 | 77 | 1016.4 |
| 20260506224511 | 0 | 111 | 3.2 | 6.4 | 0.00 | 1.14 | 1.02 | 77 | 1019.0 |
| 20260506224504 | 0 | 111 | 4.8 | 6.4 | 0.00 | 1.14 | 1.02 | 77 | 1016.3 |
| 20260506224005 | 0 | 111 | 1.6 | 4.8 | 0.00 | 1.14 | 1.02 | 78 | 1016.4 |
| 20260506223006 | 0 | 111 | 4.8 | 9.7 | 0.00 | 1.14 | 1.02 | 77 | 1016.5 |
| 20260506223002 | 0 | 111 | 3.2 | 9.7 | 0.00 | 1.14 | 1.02 | 77 | 1019.2 |
| 20260506222503 | 0 | 111 | 1.6 | 6.4 | 0.00 | 1.14 | 1.02 | 76 | 1016.6 |
| 20260506222005 | 1 | 111 | 3.2 | 4.8 | 0.00 | 1.14 | 1.02 | 73 | 1016.6 |
| 20260506221504 | 1 | 111 | 3.2 | 4.8 | 0.00 | 1.14 | 1.02 | 75 | 1016.6 |
| 20260506221502 | 1 | 111 | 1.6 | 4.8 | 0.00 | 1.14 | 1.02 | 75 | 1019.3 |
| 20260506221005 | 1 | 111 | 1.6 | 4.8 | 0.00 | 1.14 | 1.02 | 77 | 1016.6 |
| 20260506220504 | 0 | 111 | 1.6 | 4.8 | 0.00 | 1.14 | 1.02 | 77 | 1016.6 |
| 20260506220005 | 0 | 111 | 1.6 | 4.8 | 0.00 | 1.14 | 1.02 | 77 | 1016.6 |
| 20260506220003 | 0 | 111 | 0.0 | 4.8 | 0.00 | 1.14 | 1.02 | 77 | 1019.3 |
| 20260506215505 | 0 | 111 | 3.2 | 4.8 | 0.00 | 1.17 | 1.02 | 76 | 1016.7 |
| 20260506215005 | 0 | 111 | 3.2 | 6.4 | 0.00 | 1.17 | 1.02 | 75 | 1016.7 |
| 20260506214504 | 1 | 111 | 4.8 | 6.4 | 0.00 | 1.17 | 1.02 | 73 | 1016.7 |
| 20260506214502 | 1 | 111 | 3.2 | 6.4 | 0.00 | 1.17 | 1.02 | 73 | 1019.4 |
| 20260506214004 | 1 | 111 | 3.2 | 6.4 | 0.00 | 1.17 | 1.02 | 70 | 1017.0 |
| 20260506213505 | 2 | 23 | 1.6 | 4.8 | 0.00 | 1.17 | 1.02 | 71 | 1017.0 |
| 20260506213005 | 2 | 23 | 1.6 | 4.8 | 0.03 | 1.17 | 1.02 | 71 | 1017.0 |
| 20260506213002 | 2 | 23 | 1.6 | 4.8 | 0.03 | 1.17 | 1.02 | 71 | 1019.7 |
| 20260506212504 | 2 | 23 | 3.2 | 4.8 | 0.03 | 1.17 | 1.02 | 71 | 1017.0 |
| 20260506212005 | 2 | 23 | 1.6 | 8.0 | 0.03 | 1.17 | 1.02 | 72 | 1017.0 |
| 20260506211507 | 2 | 23 | 4.8 | 8.0 | 0.05 | 1.17 | 1.02 | 72 | 1019.6 |
| 20260506211504 | 2 | 23 | 4.8 | 8.0 | 0.05 | 1.17 | 1.02 | 72 | 1016.9 |
| 20260506210504 | 3 | 53 | 4.8 | 8.0 | 0.13 | 1.17 | 1.02 | 69 | 1016.9 |
| 20260506210006 | 3 | 29 | 4.8 | 6.4 | 0.15 | 1.17 | 1.02 | 70 | 1017.1 |
| 20260506210004 | 3 | 29 | 3.2 | 6.4 | 0.15 | 1.17 | 1.02 | 70 | 1019.7 |
| 20260506205505 | 3 | 29 | 3.2 | 6.4 | 0.20 | 1.19 | 1.02 | 72 | 1017.0 |
| 20260506205005 | 3 | 29 | 1.6 | 8.0 | 0.25 | 1.19 | 1.02 | 70 | 1017.0 |
| 20260506204503 | 2 | 29 | 4.8 | 8.0 | 0.30 | 1.19 | 1.02 | 70 | 1017.2 |
| 20260506204006 | 2 | 43 | 3.2 | 6.4 | 0.33 | 1.19 | 1.02 | 71 | 1017.3 |
| 20260506203504 | 2 | 43 | 1.6 | 9.7 | 0.36 | 1.17 | 0.99 | 72 | 1017.3 |
| 20260506203002 | 2 | 43 | 4.8 | 9.7 | 0.38 | 1.17 | 0.99 | 69 | 1020.1 |
| 20260506202504 | 3 | 54 | 6.4 | 9.7 | 0.41 | 1.17 | 0.99 | 69 | 1017.3 |
| 20260506202006 | 3 | 33 | 6.4 | 14.5 | 0.43 | 1.17 | 0.99 | 69 | 1017.4 |
| 20260506201504 | 3 | 38 | 8.0 | 12.9 | 0.43 | 1.14 | 0.97 | 71 | 1017.3 |
| 20260506201502 | 3 | 38 | 8.0 | 12.9 | 0.43 | 1.14 | 0.97 | 71 | 1020.0 |
| 20260506201004 | 2 | 22 | 8.0 | 12.9 | 0.46 | 1.12 | 0.94 | 73 | 1017.3 |
| 20260506200504 | 2 | 32 | 6.4 | 12.9 | 0.43 | 1.07 | 0.89 | 74 | 1017.3 |
| 20260506200006 | 2 | 49 | 8.0 | 14.5 | 0.43 | 1.04 | 0.86 | 75 | 1017.3 |
| 20260506200004 | 2 | 49 | 6.4 | 14.5 | 0.43 | 1.04 | 0.86 | 75 | 1020.0 |
| 20260506195504 | 2 | 30 | 9.7 | 14.5 | 0.41 | 1.02 | 0.81 | 76 | 1017.3 |
| 20260506195005 | 1 | 34 | 6.4 | 16.1 | 0.38 | 0.97 | 0.76 | 78 | 1017.3 |
| 20260506194504 | 1 | 22 | 8.0 | 17.7 | 0.36 | 0.91 | 0.71 | 79 | 1017.3 |
| 20260506194005 | 1 | 42 | 9.7 | 17.7 | 0.33 | 0.86 | 0.66 | 80 | 1017.3 |
| 20260506193504 | 0 | 51 | 6.4 | 14.5 | 0.33 | 0.81 | 0.61 | 81 | 1017.3 |
| 20260506193006 | 0 | 35 | 9.7 | 17.7 | 0.36 | 0.81 | 0.61 | 80 | 1017.3 |
| 20260506193003 | 0 | 42 | 8.0 | 17.7 | 0.36 | 0.81 | 0.61 | 80 | 1020.0 |
| 20260506192004 | 1 | 34 | 9.7 | 17.7 | 0.36 | 0.74 | 0.53 | 82 | 1017.3 |
| 20260506191504 | 1 | 9 | 11.3 | 17.7 | 0.36 | 0.71 | 0.51 | 81 | 1017.3 |
| 20260506191502 | 1 | 9 | 11.3 | 17.7 | 0.36 | 0.71 | 0.51 | 81 | 1019.9 |
| 20260506191004 | 0 | 32 | 12.9 | 19.3 | 0.36 | 0.69 | 0.48 | 81 | 1017.3 |
| 20260506190003 | 1 | 360 | 12.9 | 19.3 | 0.36 | 0.64 | 0.43 | 79 | 1020.1 |
| 20260506185504 | 1 | 20 | 12.9 | 19.3 | 0.33 | 0.66 | 0.41 | 80 | 1017.4 |
| 20260506185005 | 1 | 19 | 11.3 | 19.3 | 0.33 | 0.64 | 0.38 | 80 | 1017.5 |
| 20260506184504 | 1 | 16 | 16.1 | 19.3 | 0.33 | 0.61 | 0.36 | 81 | 1017.4 |
| 20260506184502 | 1 | 16 | 14.5 | 19.3 | 0.33 | 0.61 | 0.36 | 81 | 1020.1 |
| 20260506183504 | 1 | 20 | 14.5 | 19.3 | 0.25 | 0.53 | 0.28 | 81 | 1017.5 |
| 20260506183005 | 1 | 15 | 12.9 | 19.3 | 0.20 | 0.48 | 0.23 | 83 | 1017.5 |
| 20260506183002 | 1 | 15 | 12.9 | 19.3 | 0.20 | 0.48 | 0.23 | 83 | 1020.2 |
| 20260506182004 | 1 | 24 | 12.9 | 17.7 | 0.15 | 0.43 | 0.18 | 83 | 1017.3 |
| 20260506181505 | 1 | 28 | 11.3 | 16.1 | 0.13 | 0.41 | 0.15 | 83 | 1017.3 |
| 20260506181502 | 1 | 28 | 11.3 | 16.1 | 0.13 | 0.41 | 0.15 | 83 | 1019.9 |
| 20260506181005 | 1 | 48 | 8.0 | 16.1 | 0.10 | 0.38 | 0.13 | 84 | 1017.2 |
| 20260506180504 | 0 | 40 | 11.3 | 17.7 | 0.08 | 0.36 | 0.10 | 85 | 1017.3 |
| 20260506180006 | 0 | 36 | 9.7 | 17.7 | 0.05 | 0.33 | 0.08 | 85 | 1017.2 |
| 20260506180003 | 0 | 36 | 9.7 | 17.7 | 0.05 | 0.33 | 0.08 | 85 | 1019.9 |
| 20260506175504 | 0 | 42 | 9.7 | 17.7 | 0.03 | 0.33 | 0.05 | 86 | 1017.2 |
| 20260506175005 | 0 | 32 | 8.0 | 17.7 | 0.03 | 0.33 | 0.05 | 86 | 1017.3 |
| 20260506174502 | 0 | 52 | 9.7 | 17.7 | 0.00 | 0.30 | 0.03 | 86 | 1020.0 |
| 20260506174006 | 0 | 19 | 11.3 | 17.7 | 0.00 | 0.30 | 0.03 | 86 | 1017.4 |
| 20260506173503 | 0 | 5 | 12.9 | 17.7 | 0.00 | 0.30 | 0.03 | 87 | 1017.3 |
| 20260506173006 | 0 | 344 | 3.2 | 14.5 | 0.00 | 0.30 | 0.03 | 87 | 1017.2 |
| 20260506173002 | 0 | 344 | 1.6 | 14.5 | 0.00 | 0.30 | 0.03 | 87 | 1019.8 |
| 20260506172504 | 0 | 5 | 3.2 | 12.9 | 0.00 | 0.30 | 0.03 | 88 | 1017.1 |
| 20260506171505 | 0 | 19 | 11.3 | 16.1 | 0.00 | 0.30 | 0.03 | 88 | 1016.7 |
| 20260506171502 | 0 | 19 | 9.7 | 16.1 | 0.00 | 0.30 | 0.03 | 88 | 1019.4 |
| 20260506171005 | 0 | 360 | 6.4 | 16.1 | 0.00 | 0.30 | 0.03 | 89 | 1016.5 |
| 20260506170007 | 0 | 15 | 8.0 | 16.1 | 0.00 | 0.30 | 0.03 | 89 | 1016.7 |
| 20260506170002 | 0 | 15 | 8.0 | 16.1 | 0.00 | 0.30 | 0.03 | 89 | 1019.3 |
| 20260506165503 | 0 | 21 | 4.8 | 16.1 | 0.00 | 0.36 | 0.03 | 90 | 1016.7 |
| 20260506165005 | 0 | 22 | 8.0 | 16.1 | 0.00 | 0.36 | 0.03 | 90 | 1016.7 |
| 20260506164505 | 0 | 22 | 4.8 | 12.9 | 0.00 | 0.36 | 0.03 | 91 | 1016.7 |
| 20260506164006 | 0 | 5 | 3.2 | 14.5 | 0.00 | 0.36 | 0.03 | 91 | 1016.6 |
| 20260506163504 | 0 | 336 | 4.8 | 17.7 | 0.00 | 0.36 | 0.03 | 90 | 1016.5 |
| 20260506163006 | 0 | 5 | 4.8 | 9.7 | 0.00 | 0.36 | 0.03 | 91 | 1016.4 |
| 20260506163002 | 0 | 5 | 4.8 | 9.7 | 0.00 | 0.36 | 0.03 | 91 | 1019.0 |
| 20260506162503 | 0 | 5 | 6.4 | 9.7 | 0.00 | 0.36 | 0.03 | 91 | 1016.4 |
| 20260506162004 | 0 | 23 | 3.2 | 8.0 | 0.00 | 0.36 | 0.03 | 92 | 1016.5 |
| 20260506161502 | 0 | 23 | 3.2 | 8.0 | 0.03 | 0.36 | 0.03 | 92 | 1019.0 |
| 20260506161004 | 0 | 23 | 4.8 | 9.7 | 0.03 | 0.36 | 0.03 | 93 | 1016.5 |
| 20260506160504 | 0 | 360 | 4.8 | 9.7 | 0.03 | 0.36 | 0.03 | 92 | 1016.5 |
| 20260506160007 | 0 | 24 | 6.4 | 12.9 | 0.03 | 0.36 | 0.03 | 93 | 1016.3 |
| 20260506160002 | 0 | 24 | 6.4 | 12.9 | 0.03 | 0.36 | 0.03 | 93 | 1018.9 |
| 20260506155504 | 0 | 22 | 8.0 | 12.9 | 0.03 | 0.38 | 0.03 | 93 | 1016.4 |
| 20260506155006 | -1 | 19 | 9.7 | 12.9 | 0.03 | 0.38 | 0.03 | 93 | 1016.3 |
| 20260506154507 | -1 | 360 | 6.4 | 12.9 | 0.03 | 0.38 | 0.03 | 93 | 1019.0 |
| 20260506154005 | -1 | 355 | 3.2 | 9.7 | 0.03 | 0.38 | 0.03 | 93 | 1016.3 |
| 20260506153504 | -1 | 315 | 3.2 | 9.7 | 0.03 | 0.38 | 0.03 | 94 | 1016.2 |
| 20260506153002 | -1 | 26 | 0.0 | 0.0 | 0.03 | 0.38 | 0.03 | 94 | 1018.8 |
| 20260506152504 | -1 | 5 | 0.0 | 0.0 | 0.03 | 0.38 | 0.03 | 94 | 1016.0 |
| 20260506152004 | -1 | 9 | 0.0 | 0.0 | 0.00 | 0.36 | 0.00 | 94 | 1015.9 |
| 20260506151504 | -1 | 13 | 0.0 | 0.0 | 0.00 | 0.36 | 0.00 | 94 | 1015.9 |
| 20260506151502 | -1 | 13 | 0.0 | 0.0 | 0.00 | 0.36 | 0.00 | 94 | 1018.5 |
| 20260506151005 | -1 | 19 | 0.0 | 0.0 | 0.00 | 0.36 | 0.00 | 95 | 1015.8 |
| 20260506150505 | -1 | 24 | 0.0 | 1.6 | 0.00 | 0.36 | 0.00 | 95 | 1015.8 |
| 20260506150006 | -1 | 22 | 0.0 | 1.6 | 0.00 | 0.36 | 0.00 | 95 | 1015.8 |
| 20260506150003 | -1 | 22 | 0.0 | 1.6 | 0.00 | 0.36 | 0.00 | 95 | 1018.4 |
| 20260506145004 | -1 | 25 | 0.0 | 0.0 | 0.00 | 0.38 | 0.00 | 96 | 1015.8 |
| 20260506144504 | -1 | 14 | 0.0 | 0.0 | 0.00 | 0.38 | 0.00 | 96 | 1015.8 |
| 20260506144501 | -1 | 14 | 0.0 | 0.0 | 0.00 | 0.38 | 0.00 | 96 | 1018.4 |
| 20260506144004 | -1 | 14 | 0.0 | 0.0 | 0.00 | 0.38 | 0.00 | 96 | 1015.8 |
| 20260506143504 | -1 | 14 | 0.0 | 0.0 | 0.00 | 0.38 | 0.00 | 96 | 1015.8 |
| 20260506143002 | -2 | 14 | 0.0 | 0.0 | 0.00 | 0.38 | 0.00 | 96 | 1018.4 |
| 20260506142504 | -2 | 14 | 0.0 | 0.0 | 0.00 | 0.38 | 0.00 | 96 | 1015.7 |
| 20260506142005 | -2 | 14 | 0.0 | 0.0 | 0.00 | 0.38 | 0.00 | 96 | 1015.7 |
| 20260506141503 | -2 | 14 | 0.0 | 0.0 | 0.00 | 0.38 | 0.00 | 96 | 1018.2 |
| 20260506141005 | -2 | 14 | 0.0 | 0.0 | 0.00 | 0.38 | 0.00 | 96 | 1015.7 |
| 20260506140504 | -2 | 14 | 0.0 | 0.0 | 0.00 | 0.38 | 0.00 | 96 | 1015.7 |
| 20260506140006 | -2 | 14 | 0.0 | 0.0 | 0.00 | 0.38 | 0.00 | 97 | 1015.6 |
| 20260506140003 | -2 | 14 | 0.0 | 0.0 | 0.00 | 0.38 | 0.00 | 97 | 1018.2 |
| 20260506135504 | -2 | 14 | 0.0 | 0.0 | 0.00 | 0.41 | 0.00 | 97 | 1015.6 |
| 20260506135005 | -2 | 14 | 0.0 | 0.0 | 0.00 | 0.41 | 0.00 | 97 | 1015.7 |
| 20260506134505 | -2 | 14 | 0.0 | 0.0 | 0.00 | 0.41 | 0.00 | 97 | 1015.6 |
| 20260506134502 | -2 | 14 | 0.0 | 0.0 | 0.00 | 0.41 | 0.00 | 97 | 1018.1 |
| 20260506133505 | -2 | 24 | 0.0 | 0.0 | 0.00 | 0.41 | 0.00 | 97 | 1015.4 |
| 20260506133005 | -2 | 22 | 0.0 | 0.0 | 0.00 | 0.41 | 0.00 | 97 | 1015.2 |
| 20260506133001 | -2 | 22 | 0.0 | 0.0 | 0.00 | 0.41 | 0.00 | 97 | 1017.6 |
| 20260506132504 | -2 | 29 | 0.0 | 0.0 | 0.00 | 0.41 | 0.00 | 97 | 1015.1 |
| 20260506132005 | -2 | 29 | 0.0 | 0.0 | 0.00 | 0.41 | 0.00 | 97 | 1015.1 |
| 20260506131504 | -2 | 29 | 0.0 | 0.0 | 0.00 | 0.41 | 0.00 | 97 | 1017.3 |
| 20260506131005 | -2 | 38 | 0.0 | 0.0 | 0.00 | 0.41 | 0.00 | 97 | 1014.9 |
| 20260506130503 | -2 | 32 | 0.0 | 0.0 | 0.00 | 0.41 | 0.00 | 97 | 1014.8 |
| 20260506130003 | -2 | 32 | 0.0 | 0.0 | 0.00 | 0.41 | 0.00 | 97 | 1017.1 |
| 20260506125504 | -2 | 23 | 0.0 | 0.0 | 0.00 | 0.48 | 0.00 | 97 | 1014.8 |
| 20260506125005 | -2 | 40 | 0.0 | 0.0 | 0.00 | 0.48 | 0.00 | 97 | 1014.6 |
| 20260506124504 | -2 | 42 | 0.0 | 0.0 | 0.00 | 0.48 | 0.00 | 97 | 1014.6 |
| 20260506124501 | -2 | 42 | 0.0 | 0.0 | 0.00 | 0.48 | 0.00 | 97 | 1016.8 |
| 20260506124005 | -3 | 40 | 0.0 | 0.0 | 0.00 | 0.48 | 0.00 | 97 | 1014.4 |
| 20260506123503 | -3 | 32 | 0.0 | 0.0 | 0.00 | 0.48 | 0.00 | 97 | 1014.5 |
| 20260506123005 | -3 | 18 | 0.0 | 0.0 | 0.00 | 0.48 | 0.00 | 97 | 1014.5 |
| 20260506123003 | -3 | 18 | 0.0 | 0.0 | 0.00 | 0.48 | 0.00 | 97 | 1016.6 |
| 20260506122005 | -3 | 23 | 0.0 | 0.0 | 0.00 | 0.48 | 0.00 | 97 | 1014.3 |
| 20260506121504 | -3 | 15 | 0.0 | 0.0 | 0.00 | 0.48 | 0.00 | 97 | 1014.4 |
| 20260506121502 | -3 | 15 | 0.0 | 0.0 | 0.00 | 0.48 | 0.00 | 97 | 1016.5 |
| 20260506121004 | -3 | 22 | 0.0 | 0.0 | 0.00 | 0.48 | 0.00 | 97 | 1014.4 |
| 20260506120008 | -3 | 39 | 0.0 | 0.0 | 0.00 | 0.48 | 0.00 | 97 | 1016.2 |
| 20260506120006 | -3 | 39 | 0.0 | 0.0 | 0.00 | 0.48 | 0.00 | 97 | 1014.2 |
| 20260506115504 | -3 | 45 | 0.0 | 0.0 | 0.00 | 0.53 | 0.00 | 97 | 1014.1 |
| 20260506115005 | -3 | 49 | 0.0 | 0.0 | 0.00 | 0.53 | 0.00 | 97 | 1014.1 |
| 20260506114504 | -3 | 46 | 0.0 | 0.0 | 0.00 | 0.53 | 0.00 | 97 | 1014.0 |
| 20260506114502 | -3 | 46 | 0.0 | 0.0 | 0.00 | 0.53 | 0.00 | 97 | 1015.8 |
| 20260506114005 | -3 | 53 | 0.0 | 0.0 | 0.00 | 0.53 | 0.00 | 97 | 1014.0 |
| 20260506113503 | -3 | 42 | 0.0 | 0.0 | 0.00 | 0.53 | 0.00 | 97 | 1014.0 |
| 20260506113006 | -3 | 23 | 0.0 | 0.0 | 0.00 | 0.53 | 0.00 | 97 | 1014.0 |
| 20260506113002 | -3 | 23 | 0.0 | 0.0 | 0.00 | 0.53 | 0.00 | 97 | 1015.8 |
| 20260506112504 | -3 | 43 | 0.0 | 0.0 | 0.00 | 0.53 | 0.00 | 97 | 1014.1 |
| 20260506112004 | -3 | 31 | 0.0 | 0.0 | 0.00 | 0.53 | 0.00 | 97 | 1014.0 |
| 20260506111504 | -3 | 32 | 0.0 | 0.0 | 0.00 | 0.53 | 0.00 | 97 | 1014.0 |
| 20260506111502 | -3 | 32 | 0.0 | 0.0 | 0.00 | 0.53 | 0.00 | 97 | 1015.8 |
| 20260506111005 | -3 | 38 | 0.0 | 0.0 | 0.00 | 0.53 | 0.00 | 97 | 1013.9 |